Chisinau current weather conditions

sailwx.info

Wind from 340 at 8 knots

Air temperature 11.0° C
Visibility: greater than 5.4 NM
Dewpoint -3.0° C

Last reported at 2020-Jan-22 15:00 UTC.
Time now 2020-Jan-22 15:39 UTC

Location: N 46°56' E 028°56'.
View on Google Maps.

See reports from other nearby stations

  
Tides and Currents Weather Stations Pressure Air Temp Water Temp Dewpoint Dewpoint Depression Visibility Wind Speed Wind Dir Waves Ship Positions
date/time (UTC)wind fromknots sea level pressurealtimeterstation pressurevisibilityair tempwater tempwave heightnotes
2020-Jan-22 15:00 340 8 5.411.0
2020-Jan-22 14:30 330 13 5.411.0
2020-Jan-22 14:00 320 14 5.412.0
2020-Jan-22 13:30 340 19 5.412.0
2020-Jan-22 13:00 330 13 5.413.0
2020-Jan-22 12:30 330 15 gusting 26 5.413.0
2020-Jan-22 12:00 310 14 5.413.0
2020-Jan-22 11:30 300 17 5.412.0
2020-Jan-22 11:00 300 15 5.411.0
2020-Jan-22 10:30 290 14 5.411.0
2020-Jan-22 10:00 290 17 5.4 9.0
2020-Jan-22 09:30 300 13 5.4 8.0
2020-Jan-22 09:00 290 13 5.4 7.0
2020-Jan-22 08:30 280 11 5.4 6.0
2020-Jan-22 08:00 280 13 5.4 5.0
2020-Jan-22 07:30 280 11 5.4 5.0
2020-Jan-22 07:00 270 6 5.4 3.0
2020-Jan-22 06:30 310 9 5.4 3.0
2020-Jan-22 06:00 310 9 5.4 3.0
2020-Jan-22 05:30 330 12 5.4 4.0
2020-Jan-22 05:00 330 13 5.4 4.0
2020-Jan-22 04:30 320 13 5.4 4.0
2020-Jan-22 04:00 330 14 5.4 5.0
2020-Jan-22 03:30 320 12 5.4 4.0
2020-Jan-22 03:00 320 11 5.4 4.0
2020-Jan-22 02:30 330 13 5.4 5.0
2020-Jan-22 02:00 330 12 5.4 5.0
2020-Jan-22 01:30 330 9 gusting 24 5.4 5.0
2020-Jan-22 01:00 340 13 5.4 6.0
2020-Jan-22 00:30 350 12 5.4 6.0
2020-Jan-22 00:00 350 9 5.4 6.0
2020-Jan-21 23:30 340 12 5.4 6.0
2020-Jan-21 23:00 340 13 5.4 6.0
2020-Jan-21 22:30 350 13 5.4 7.0
2020-Jan-21 22:00 340 7 5.4 6.0
2020-Jan-21 21:30 270 6 5.4 2.0
2020-Jan-21 21:00 280 9 5.4 1.0
2020-Jan-21 20:30 280 9 5.4 2.0
2020-Jan-21 20:00 290 8 5.4 1.0
2020-Jan-21 19:30 280 7 5.4-0.0
2020-Jan-21 19:00 280 8 5.4 2.0
2020-Jan-21 18:30 320 9 5.4 2.0
2020-Jan-21 18:00 320 11 5.4 4.0
2020-Jan-21 17:30 290 11 5.4 2.0
2020-Jan-21 17:00 280 8 5.4 3.0
2020-Jan-21 16:30 290 9 5.4 4.0
2020-Jan-21 16:00 300 8 5.4 3.0
2020-Jan-21 15:30 310 9 5.4 4.0
2020-Jan-21 15:00 310 8 5.4 5.0
2020-Jan-21 14:30 300 9 5.4 6.0
2020-Jan-21 14:00 330 9 5.4 6.0
2020-Jan-21 13:30 330 11 5.4 6.0
2020-Jan-21 13:00 350 7 5.4 7.0
2020-Jan-21 12:30 320 11 5.4 7.0
2020-Jan-21 12:00 330 12 5.4 7.0
2020-Jan-21 11:30 340 8 5.4 6.0
2020-Jan-21 11:00 340 7 5.4 6.0
2020-Jan-21 10:30 350 8 5.4 5.0
2020-Jan-21 10:00 350 9 5.4 4.0
2020-Jan-21 09:30 340 9 5.4 5.0
2020-Jan-21 09:00 340 12 5.4 4.0
2020-Jan-21 08:30 350 9 5.4 3.0
2020-Jan-21 08:00 350 7 5.4 2.0
2020-Jan-21 07:30 340 12 5.4 2.0
2020-Jan-21 07:00 330 11 5.4 1.0
2020-Jan-21 06:30 320 7 5.4 1.0
2020-Jan-21 06:00 330 9 5.4 1.0
2020-Jan-21 05:30 340 9 5.4 1.0
2020-Jan-21 05:00 320 9 5.4 1.0
2020-Jan-21 04:30 320 9 5.4 1.0
2020-Jan-21 04:00 320 9 5.4 1.0
2020-Jan-21 03:30 320 11 5.4 1.0
2020-Jan-21 03:00 330 11 5.4 1.0
2020-Jan-21 02:30 330 13 5.4 1.0
2020-Jan-21 02:00 330 13 5.4 2.0
2020-Jan-21 01:30 330 12 5.4 2.0
2020-Jan-21 01:00 340 11 5.4 2.0
2020-Jan-21 00:30 330 11 5.4 1.0
2020-Jan-21 00:00 340 13 5.4 1.0
2020-Jan-20 23:30 340 12 5.4 1.0
2020-Jan-20 23:00 330 8 5.4 1.0
2020-Jan-20 22:30 340 8 5.4 1.0
2020-Jan-20 22:00 330 8 5.4 1.0
2020-Jan-20 21:30 330 8 5.4 1.0
2020-Jan-20 21:00 320 9 5.4-0.0
2020-Jan-20 20:30 320 8 5.4-0.0
2020-Jan-20 20:00 320 9 5.4-0.0
2020-Jan-20 19:30 330 11 5.4-0.0
2020-Jan-20 19:00 330 11 5.4-0.0
2020-Jan-20 18:30 330 11 5.4-0.0
2020-Jan-20 18:00 330 9 5.4-0.0
2020-Jan-20 17:30 320 8 5.4-0.0
2020-Jan-20 17:00 330 8 5.4-0.0
2020-Jan-20 16:30 340 11 5.4-0.0
2020-Jan-20 16:00 340 13 5.4-0.0
2020-Jan-20 15:30 360 13 5.4-0.0
2020-Jan-20 15:00 360 15 5.4-0.0